Location: Praha
(50.0830°N, 14.4670°E)
Time: 01:51:51
(UTC+02:00)

ISS - Pass Details

Date: 12 May 2024
Orbit: 409 x 414 km, 51.6° (Epoch: 23 May)

Event Time Altitude Azimuth Distance (km) Brightness Sun altitude
Rises 21:57:25 0° 232° (SW) 2,343 0.1 -10.7°
Reaches altitude 10° 21:59:33 10° 227° (SW) 1,482 -1.0 -11.0°
Maximum altitude 22:02:45 46° 152° (SSE) 568 -3.5 -11.3°
Drops below altitude 10° 22:05:57 10° 79° (ENE) 1,485 -1.3 -11.6°
Sets 22:08:06 0° 73° (ENE) 2,348 -0.2 -11.9°
